Time,TemperatureF,DewpointF,PressureIn,WindDirection,WindDirectionDegrees,WindSpeedMPH,WindSpeedGustMPH,Humidity,HourlyPrecipIn,Conditions,Clouds,dailyrainin,SoftwareType,DateUTC
2013-08-26 07:12:00,68.0,59.0,30.17,SW,214,0.0,1.0,72,0.00,,,0.00,,2013-08-26 11:12:00,
2013-08-26 07:22:00,68.0,59.0,30.16,SW,214,0.0,3.0,72,0.00,,,0.00,,2013-08-26 11:22:00,
2013-08-26 07:52:00,68.0,58.0,30.16,SW,217,1.0,6.0,71,0.00,,,0.00,,2013-08-26 11:52:00,
2013-08-26 08:12:00,68.0,58.0,30.16,SW,217,0.0,4.0,71,0.00,,,0.00,,2013-08-26 12:12:00,
2013-08-26 08:22:00,69.0,59.0,30.16,SW,217,0.0,1.0,70,0.00,,,0.00,,2013-08-26 12:22:00,
2013-08-26 08:32:00,69.0,59.0,30.16,SW,217,0.0,1.0,70,0.00,,,0.00,,2013-08-26 12:32:00,
2013-08-26 08:52:00,69.0,59.0,30.16,SW,217,0.0,1.0,70,0.00,,,0.00,,2013-08-26 12:52:00,
2013-08-26 09:12:00,69.0,59.0,30.15,SW,214,0.0,1.0,70,0.00,,,0.00,,2013-08-26 13:12:00,
2013-08-26 09:22:00,70.0,60.0,30.16,SW,215,0.0,1.0,70,0.00,,,0.00,,2013-08-26 13:22:00,
2013-08-26 09:42:00,70.0,60.0,30.15,SW,215,0.0,1.0,70,0.00,,,0.00,,2013-08-26 13:42:00,
2013-08-26 09:52:00,71.0,60.0,30.14,SSW,212,1.0,4.0,68,0.00,,,0.00,,2013-08-26 13:52:00,
2013-08-26 10:11:00,72.0,61.0,30.14,SSW,207,0.0,3.0,69,0.00,,,0.00,,2013-08-26 14:11:00,
2013-08-26 10:22:00,73.0,61.0,30.14,SSW,211,1.0,3.0,65,0.00,,,0.00,,2013-08-26 14:22:00,
2013-08-26 10:42:00,75.0,63.0,30.14,SSW,213,0.0,4.0,66,0.00,,,0.00,,2013-08-26 14:42:00,
2013-08-26 10:52:00,75.0,61.0,30.14,SSW,211,0.0,7.0,62,0.00,,,0.00,,2013-08-26 14:52:00,
2013-08-26 11:12:00,76.0,62.0,30.13,SSW,211,0.0,4.0,63,0.00,,,0.00,,2013-08-26 15:12:00,
2013-08-26 11:22:00,76.0,63.0,30.12,SSW,204,0.0,4.0,64,0.00,,,0.00,,2013-08-26 15:22:00,
2013-08-26 11:47:00,75.0,62.0,30.11,SSW,207,1.0,4.0,64,0.00,,,0.00,,2013-08-26 15:47:00,
2013-08-26 11:59:00,76.0,63.0,30.10,SSW,211,0.0,8.0,65,0.00,,,0.00,,2013-08-26 15:59:00,
2013-08-26 12:17:00,76.0,62.0,30.10,SW,216,2.0,10.0,63,0.00,,,0.00,,2013-08-26 16:17:00,
2013-08-26 12:29:00,77.0,63.0,30.09,SW,219,0.0,4.0,63,0.00,,,0.00,,2013-08-26 16:29:00,
2013-08-26 12:59:00,78.0,65.0,30.08,SSW,210,0.0,2.0,64,0.00,,,0.00,,2013-08-26 16:59:00,
2013-08-26 13:12:00,78.0,65.0,30.07,SW,219,0.0,1.0,64,0.00,,,0.00,,2013-08-26 17:12:00,
2013-08-26 13:24:00,79.0,66.0,30.06,SW,215,0.0,4.0,65,0.00,,,0.00,,2013-08-26 17:24:00,
2013-08-26 13:43:00,79.0,66.0,30.06,SW,217,1.0,6.0,64,0.00,,,0.00,,2013-08-26 17:43:00,
2013-08-26 13:53:00,79.0,65.0,30.06,SSW,212,0.0,5.0,63,0.00,,,0.00,,2013-08-26 17:53:00,
2013-08-26 14:12:00,81.0,66.0,30.05,SSW,212,1.0,5.0,61,0.00,,,0.00,,2013-08-26 18:12:00,
2013-08-26 14:22:00,81.0,66.0,30.03,SSW,212,0.0,4.0,60,0.00,,,0.00,,2013-08-26 18:22:00,
2013-08-26 14:52:00,81.0,65.0,30.02,SW,219,0.0,4.0,59,0.00,,,0.00,,2013-08-26 18:52:00,
2013-08-26 15:11:00,81.0,66.0,30.01,SSW,213,0.0,7.0,60,0.00,,,0.00,,2013-08-26 19:11:00,
2013-08-26 15:22:00,81.0,67.0,30.01,SSW,211,0.0,3.0,62,0.00,,,0.00,,2013-08-26 19:22:00,
2013-08-26 15:42:00,81.0,66.0,30.00,SW,217,3.0,7.0,61,0.00,,,0.00,,2013-08-26 19:42:00,
2013-08-26 15:52:00,81.0,66.0,30.00,SSW,210,0.0,5.0,61,0.00,,,0.00,,2013-08-26 19:52:00,
2013-08-26 16:11:00,80.0,66.0,29.99,SSW,209,0.0,1.0,63,0.00,,,0.00,,2013-08-26 20:11:00,
2013-08-26 16:22:00,80.0,66.0,29.99,SSW,209,0.0,1.0,63,0.00,,,0.00,,2013-08-26 20:22:00,
2013-08-26 16:43:00,80.0,67.0,29.98,SSW,213,0.0,2.0,65,0.00,,,0.00,,2013-08-26 20:43:00,
2013-08-26 16:52:00,80.0,67.0,29.98,SW,215,0.0,2.0,65,0.00,,,0.00,,2013-08-26 20:52:00,
2013-08-26 17:22:00,80.0,67.0,29.97,SW,216,0.0,3.0,64,0.00,,,0.00,,2013-08-26 21:22:00,
2013-08-26 17:33:00,79.0,68.0,29.98,SW,226,0.0,1.0,68,0.00,,,0.00,,2013-08-26 21:33:00,
2013-08-26 17:55:00,79.0,68.0,29.98,SW,226,0.0,1.0,68,0.00,,,0.00,,2013-08-26 21:55:00,
2013-08-26 18:07:00,79.0,68.0,29.98,SW,226,0.0,1.0,68,0.00,,,0.00,,2013-08-26 22:07:00,
2013-08-26 18:16:00,79.0,68.0,29.98,SW,226,0.0,1.0,68,0.00,,,0.00,,2013-08-26 22:16:00,
2013-08-26 18:26:00,79.0,68.0,29.98,SW,226,0.0,1.0,68,0.00,,,0.00,,2013-08-26 22:26:00,